Wind_Speed
20 21 22 22 22 22 21 22 22 23 23 24 25 25 24 24 24 25 25 25 25 24 24 24 24 24 24 23 23 24 24 23 23 23 23 24 25 25 26 26 26 26 26
21 22 23 23 22 21 21 22 23 24 24 25 25 25 24 24 25 25 25 25 24 24 24 24 24 23 23 23 23 24 24 23 23 23 23 23 24 25 25 25 26 26 25
21 22 22 22 21 22 23 23 24 24 24 25 25 25 25 25 24 24 24 24 24 23 24 24 24 24 24 24 24 23 24 24 24 24 23 23 22 23 24 24 25 25 25
22 22 22 22 23 24 24 24 24 24 24 24 24 24 25 24 24 24 23 23 24 23 23 24 24 24 24 24 23 23 23 24 24 24 23 23 23 24 24 25 25 26 26
22 21 21 22 24 24 25 25 25 25 25 25 24 24 24 24 24 24 23 22 22 21 22 22 23 24 24 24 22 22 22 22 23 24 23 23 23 23 25 25 26 26 26
22 22 22 23 24 24 25 26 26 26 25 24 24 25 24 24 24 24 23 22 21 21 22 22 22 23 24 24 23 22 23 22 22 23 23 24 23 23 24 24 26 27 26
23 23 23 23 23 24 25 26 26 25 24 25 24 24 24 24 24 23 23 22 21 22 22 21 21 22 23 23 23 22 23 23 23 24 24 24 24 24 24 25 26 26 26
23 24 23 23 24 24 24 25 25 24 24 24 24 24 24 23 23 23 22 22 21 21 21 21 21 21 22 22 22 23 23 24 24 25 25 25 25 25 24 25 26 26 26
23 23 23 24 25 24 24 24 25 23 23 23 23 23 23 22 22 21 21 21 21 21 21 21 21 20 21 21 22 23 24 24 24 25 25 25 25 25 25 24 25 26 26
24 24 24 25 25 25 26 25 24 23 23 23 23 23 23 22 22 21 21 21 21 21 22 22 21 21 20 21 22 22 22 22 22 23 24 24 25 26 25 25 24 24 26
24 24 25 25 25 26 25 25 24 24 23 23 23 23 22 22 21 22 22 22 22 22 22 21 21 22 22 21 22 22 22 22 23 22 23 23 24 25 25 24 24 24 24
24 24 24 25 26 26 25 25 25 24 24 24 23 22 22 21 21 21 21 21 21 21 21 21 21 21 21 21 21 21 22 22 22 22 22 23 23 23 23 24 24 24 24
24 24 25 25 25 25 25 25 25 24 24 24 23 22 21 21 21 21 21 20 20 21 20 20 20 20 20 20 20 19 19 20 21 21 21 21 23 23 23 23 23 23 23
23 24 24 24 24 25 25 25 25 24 24 24 23 22 22 22 21 21 21 20 21 21 20 19 19 19 19 19 18 18 18 18 19 20 20 21 21 22 22 22 23 23 23
24 25 25 24 24 25 24 24 24 23 23 23 22 22 22 21 21 21 22 21 21 21 20 19 18 18 18 19 18 18 18 19 20 20 21 20 20 20 21 22 23 23 23
25 25 25 25 24 23 24 24 24 24 23 22 21 21 21 21 22 22 22 22 21 20 20 18 18 18 18 19 19 19 19 19 19 20 19 20 20 20 21 21 21 21 22
25 26 25 24 24 24 24 23 24 24 22 21 21 20 20 20 22 22 22 20 20 19 19 18 18 18 18 19 19 19 18 18 19 19 20 20 20 21 21 21 21 21 21
25 24 24 23 24 24 24 24 24 23 23 22 22 21 21 22 23 22 21 20 19 19 18 18 17 18 18 18 18 19 18 18 19 20 19 19 19 20 20 20 20 20 20
24 24 23 23 23 23 24 24 24 23 23 23 22 22 22 23 22 22 21 20 19 18 19 18 18 18 18 18 18 18 18 18 18 18 18 18 19 20 19 19 18 18 19
25 24 23 23 23 23 23 24 24 23 23 23 23 22 23 22 22 21 21 20 19 18 18 18 18 17 17 17 17 17 17 16 17 17 17 17 17 18 19 20 19 18 18
24 24 24 24 24 24 24 24 23 23 23 23 23 23 23 23 22 21 20 19 18 17 17 17 16 16 16 16 15 16 16 16 16 16 17 17 16 17 18 18 18 18 19
24 24 24 24 24 24 24 24 24 24 23 23 23 23 22 22 21 20 19 18 17 15 16 15 15 15 15 15 15 15 16 16 15 15 16 17 17 17 17 18 18 19 19
25 25 25 24 24 24 24 24 24 23 23 23 23 22 21 21 20 19 18 17 16 15 15 16 16 16 15 15 15 14 14 14 15 15 15 16 16 17 18 18 19 19 19
25 25 24 24 24 24 24 24 23 23 23 23 23 23 22 21 19 18 18 18 17 16 17 17 17 16 15 14 14 13 14 14 14 14 15 15 15 15 16 17 18 19 20
25 25 24 24 24 24 24 24 24 24 24 24 24 23 22 20 19 18 19 18 17 17 17 17 16 15 14 13 13 13 13 13 13 13 13 13 14 15 15 16 18 19 19
25 24 24 25 24 24 24 24 24 25 25 25 24 23 21 19 18 19 18 18 17 17 16 15 15 14 14 13 13 13 13 12 12 13 13 13 14 14 15 15 16 16 17
Wind_Direction
306 306 307 307 307 304 302 302 301 299 300 302 302 301 301 300 299 295 289 287 286 283 282 280 276 275 274 275 273 270 268 267 266 266 266 264 261 259 258 257 256 256 256
306 307 307 307 307 305 304 305 304 302 301 303 303 302 301 299 298 297 293 288 285 283 280 277 275 274 274 274 273 271 269 267 265 266 265 264 262 260 260 259 258 257 258
307 308 306 306 307 307 307 306 306 304 303 303 303 302 301 301 300 297 294 290 286 284 281 277 274 273 273 273 274 273 268 266 264 264 265 266 264 262 261 260 259 259 260
309 309 307 307 308 307 307 306 306 305 304 304 304 303 302 300 299 297 297 292 287 284 282 278 275 274 275 274 274 272 269 265 264 263 264 265 263 263 262 260 258 258 258
307 307 307 308 309 307 306 305 306 307 306 305 306 305 303 302 299 296 296 293 289 286 283 279 276 274 274 274 272 270 268 267 266 264 264 264 264 264 262 261 260 259 257
310 309 308 309 309 309 309 309 308 307 306 305 306 306 304 302 300 298 296 293 290 287 285 282 279 277 276 272 270 269 267 266 266 265 265 263 265 265 263 262 261 258 257
313 312 311 311 312 312 312 312 312 310 307 306 307 307 306 303 300 299 297 294 291 289 286 283 281 279 277 274 270 269 269 267 266 265 265 263 264 265 263 261 261 258 256
313 313 313 313 313 314 314 314 314 311 309 308 308 308 308 305 301 297 296 293 291 290 289 286 283 280 278 276 273 271 269 268 267 266 264 263 263 265 265 264 263 261 258
313 313 315 314 314 316 317 317 317 313 311 311 309 309 310 308 304 301 299 296 294 293 291 287 283 281 280 277 276 274 272 270 269 268 265 263 263 264 265 265 264 262 260
312 313 314 315 316 316 315 316 316 314 312 311 309 308 308 308 307 307 304 301 297 296 292 288 284 282 281 278 277 276 273 273 273 271 267 265 263 263 263 264 265 264 261
313 314 316 317 317 317 318 318 316 314 312 310 310 310 310 310 308 307 304 303 299 297 293 290 285 284 283 282 278 274 273 275 274 270 268 266 263 262 263 264 263 263 263
313 314 316 318 318 318 318 318 317 316 314 311 310 311 312 310 309 307 305 305 302 298 295 294 289 285 282 279 276 276 275 274 273 270 268 264 261 262 262 263 262 262 264
315 315 315 318 318 318 318 318 317 316 315 313 311 311 310 308 308 308 306 305 304 300 296 296 291 286 283 278 276 275 274 272 271 270 267 263 261 262 264 263 262 262 263
319 319 318 318 318 318 320 320 320 318 316 315 312 310 308 308 309 309 307 306 305 302 299 296 294 290 285 278 274 273 271 269 269 270 268 264 263 263 263 263 262 262 264
319 320 319 317 318 317 318 320 320 318 317 315 312 310 309 308 310 310 308 307 305 303 300 296 291 287 283 277 273 270 269 270 270 269 270 267 264 263 264 264 264 263 262
318 320 318 317 317 318 320 320 318 316 315 314 312 310 309 309 312 312 310 309 306 303 302 297 290 285 282 278 276 273 272 271 270 270 269 265 262 263 263 264 264 262 261
318 319 318 317 317 317 318 318 317 316 315 315 313 311 312 314 315 315 313 310 306 302 300 295 289 288 287 284 282 277 275 273 271 270 268 265 263 263 261 262 264 263 262
317 317 316 315 316 316 317 316 317 318 317 316 314 312 312 314 316 315 312 308 305 300 301 299 293 291 289 286 284 278 275 276 273 270 268 266 265 264 263 262 264 262 262
316 316 315 315 316 317 317 317 317 317 317 316 314 314 315 317 316 313 310 309 307 303 302 302 299 296 292 287 284 281 277 275 273 270 266 267 265 265 263 264 263 262 262
317 316 315 316 318 319 319 319 318 318 317 315 314 313 315 317 317 315 313 311 310 308 303 302 301 299 296 292 287 283 278 277 274 271 268 269 268 265 265 264 262 263 265
315 315 314 314 315 316 316 317 317 316 316 316 314 314 315 316 316 316 315 312 311 310 306 304 302 300 299 296 292 287 283 281 279 275 271 267 266 268 267 265 263 264 267
314 314 313 312 313 313 314 315 315 315 315 316 315 315 314 315 314 314 313 311 310 309 310 308 306 304 302 299 295 291 287 283 279 277 273 270 267 268 267 264 264 267 269
314 315 315 313 313 313 314 315 314 314 315 317 317 316 314 314 313 313 312 311 310 310 311 309 308 305 301 295 293 292 291 286 283 283 281 276 270 267 269 268 265 266 268
315 315 316 314 313 314 315 315 314 314 316 316 316 315 314 312 310 309 310 311 309 309 309 309 307 305 301 298 295 293 290 287 286 286 285 281 276 273 271 269 268 267 269
314 314 315 313 311 312 313 312 312 313 314 315 314 313 313 309 307 307 308 308 307 307 308 309 307 305 303 299 297 292 291 291 292 293 293 290 285 282 279 274 273 272 270
311 312 312 312 313 313 312 311 311 311 313 314 313 313 312 310 308 308 308 307 308 309 310 312 311 308 303 300 298 295 295 295 295 294 295 293 287 286 283 278 276 273 271
Height
5852 5849 5846 5844 5841 5838 5836 5833 5830 5827 5825 5822 5819 5816 5813 5811 5808 5805 5803 5802 5800 5799 5798 5798 5797 5796 5796 5796 5796 5796 5796 5796 5796 5796 5796 5797 5798 5798 5799 5800 5802 5803 5804
5848 5845 5842 5839 5836 5833 5831 5828 5825 5823 5820 5816 5813 5810 5807 5804 5802 5799 5797 5795 5793 5792 5791 5790 5790 5789 5789 5789 5788 5789 5789 5789 5789 5790 5790 5791 5792 5792 5793 5794 5795 5796 5797
5844 5841 5838 5834 5831 5829 5826 5823 5820 5817 5814 5810 5807 5804 5800 5798 5795 5792 5790 5788 5786 5785 5784 5783 5782 5782 5782 5782 5781 5782 5782 5782 5783 5783 5784 5784 5785 5786 5787 5787 5789 5790 5791
5840 5836 5833 5830 5827 5824 5821 5818 5815 5811 5808 5804 5801 5797 5793 5791 5788 5785 5783 5781 5779 5777 5776 5775 5775 5775 5775 5775 5775 5774 5774 5775 5776 5776 5777 5778 5778 5779 5780 5781 5782 5783 5784
5836 5832 5829 5826 5822 5819 5815 5812 5808 5805 5802 5798 5794 5791 5787 5784 5781 5779 5777 5774 5772 5770 5769 5768 5767 5767 5767 5767 5767 5767 5767 5768 5769 5769 5770 5770 5770 5771 5772 5774 5775 5776 5777
5831 5828 5825 5821 5817 5814 5810 5806 5802 5799 5795 5791 5788 5785 5782 5778 5775 5773 5770 5768 5766 5764 5762 5761 5760 5760 5760 5760 5760 5760 5760 5761 5762 5762 5763 5763 5764 5764 5765 5766 5767 5768 5769
5827 5824 5820 5817 5813 5809 5805 5801 5797 5793 5789 5786 5782 5779 5776 5772 5769 5766 5764 5762 5760 5758 5756 5755 5754 5753 5752 5752 5752 5753 5753 5754 5754 5755 5756 5756 5757 5757 5757 5758 5759 5760 5761
5823 5819 5816 5812 5808 5803 5800 5796 5791 5787 5783 5780 5777 5773 5770 5766 5763 5760 5758 5756 5754 5752 5750 5749 5747 5746 5745 5745 5745 5745 5746 5746 5747 5747 5748 5749 5749 5750 5750 5751 5752 5753 5754
5819 5815 5811 5807 5803 5798 5794 5790 5786 5782 5778 5775 5771 5768 5764 5761 5758 5755 5752 5750 5748 5746 5744 5742 5741 5740 5739 5738 5738 5738 5739 5739 5739 5739 5740 5741 5742 5742 5743 5743 5744 5746 5746
5814 5810 5806 5802 5798 5794 5790 5785 5780 5777 5773 5769 5766 5762 5759 5756 5752 5750 5747 5744 5742 5740 5738 5736 5735 5734 5733 5732 5731 5732 5731 5732 5732 5732 5732 5733 5734 5735 5736 5736 5737 5738 5739
5809 5805 5801 5797 5793 5789 5784 5780 5776 5772 5768 5765 5761 5757 5754 5751 5747 5744 5741 5739 5736 5733 5731 5730 5728 5727 5727 5726 5725 5725 5725 5725 5725 5725 5725 5726 5727 5728 5728 5729 5730 5731 5732
5804 5800 5796 5792 5788 5784 5780 5775 5771 5767 5763 5759 5756 5752 5749 5746 5742 5739 5736 5733 5730 5728 5725 5723 5722 5721 5720 5720 5719 5719 5718 5719 5718 5719 5719 5719 5720 5721 5722 5722 5723 5724 5725
5800 5796 5792 5788 5783 5779 5775 5770 5766 5762 5758 5754 5750 5747 5744 5740 5737 5734 5731 5728 5725 5723 5720 5718 5716 5715 5714 5713 5713 5712 5712 5712 5712 5712 5712 5712 5713 5714 5715 5715 5716 5717 5718
5794 5791 5787 5783 5779 5774 5770 5765 5761 5756 5752 5749 5745 5742 5738 5735 5732 5729 5726 5723 5720 5718 5715 5713 5711 5709 5708 5707 5707 5706 5706 5706 5706 5706 5706 5706 5706 5707 5708 5708 5709 5710 5711
5790 5786 5782 5778 5774 5769 5765 5761 5756 5751 5747 5743 5740 5737 5733 5730 5727 5724 5721 5718 5715 5713 5710 5708 5706 5704 5703 5702 5701 5700 5700 5700 5700 5700 5700 5700 5700 5700 5701 5701 5702 5703 5704
5785 5781 5777 5773 5769 5764 5760 5756 5751 5747 5743 5739 5735 5732 5729 5726 5723 5719 5716 5713 5710 5707 5705 5703 5701 5699 5697 5696 5695 5694 5694 5694 5694 5694 5694 5694 5694 5694 5694 5694 5695 5696 5697
5780 5776 5772 5768 5764 5760 5755 5751 5746 5742 5738 5735 5731 5728 5725 5722 5718 5715 5711 5708 5705 5702 5700 5698 5696 5694 5692 5691 5689 5688 5688 5688 5688 5688 5688 5687 5687 5687 5688 5688 5688 5689 5690
5775 5771 5767 5763 5759 5755 5750 5746 5742 5738 5734 5731 5727 5724 5721 5717 5714 5710 5707 5704 5701 5698 5695 5693 5691 5689 5687 5686 5684 5683 5682 5682 5682 5682 5681 5681 5681 5681 5681 5682 5682 5683 5684
5770 5766 5762 5758 5754 5750 5746 5742 5738 5734 5730 5727 5723 5720 5716 5713 5709 5706 5702 5699 5696 5693 5690 5688 5685 5683 5682 5680 5679 5678 5677 5676 5676 5675 5675 5675 5675 5675 5675 5676 5676 5677 5678
5765 5760 5757 5753 5749 5745 5741 5738 5734 5730 5726 5723 5719 5716 5712 5708 5705 5701 5697 5694 5691 5688 5686 5683 5681 5678 5677 5675 5674 5672 5671 5671 5670 5670 5669 5669 5669 5669 5669 5669 5670 5671 5672
5759 5755 5752 5748 5744 5741 5737 5733 5729 5726 5722 5718 5715 5711 5707 5703 5700 5696 5693 5689 5686 5684 5681 5679 5676 5674 5672 5670 5668 5667 5666 5665 5664 5664 5664 5663 5663 5663 5663 5663 5664 5665 5665
5754 5750 5746 5743 5739 5736 5732 5728 5725 5721 5717 5714 5710 5706 5703 5699 5695 5692 5688 5685 5682 5680 5677 5674 5672 5669 5667 5665 5664 5662 5661 5660 5659 5659 5658 5658 5658 5657 5657 5657 5658 5659 5659
5749 5745 5741 5737 5734 5730 5727 5724 5720 5716 5712 5709 5705 5701 5698 5694 5691 5687 5684 5681 5678 5676 5673 5670 5668 5665 5663 5661 5659 5658 5657 5655 5654 5654 5653 5652 5652 5652 5652 5652 5652 5652 5653
5743 5740 5736 5732 5729 5726 5722 5719 5715 5711 5708 5704 5700 5696 5693 5689 5686 5683 5680 5677 5674 5671 5668 5666 5663 5660 5658 5656 5654 5653 5652 5651 5650 5649 5648 5647 5647 5646 5646 5646 5646 5646 5647
5738 5735 5731 5728 5724 5721 5717 5714 5710 5706 5703 5699 5695 5691 5688 5684 5682 5679 5676 5673 5670 5667 5664 5661 5658 5656 5654 5652 5650 5649 5648 5646 5645 5644 5643 5642 5642 5641 5640 5640 5640 5640 5640
5733 5729 5726 5722 5719 5715 5712 5708 5705 5701 5697 5693 5689 5686 5683 5680 5677 5675 5672 5668 5666 5662 5660 5657 5654 5652 5650 5648 5646 5645 5643 5642 5640 5639 5638 5637 5636 5636 5635 5635 5634 5634 5634